Time,TemperatureF,DewpointF,PressureIn,WindDirection,WindDirectionDegrees,WindSpeedMPH,WindSpeedGustMPH,Humidity,HourlyPrecipIn,Conditions,Clouds,dailyrainin,SoftwareType,DateUTC
2013-07-11 00:06:00,66.1,61.0,30.08,West,271,0.0,0.0,82,0.00,,,0.00,weatherlink.com 1.10,2013-07-11 05:06:00,
2013-07-11 00:21:00,65.8,61.0,30.09,West,271,0.0,0.0,83,0.00,,,0.00,weatherlink.com 1.10,2013-07-11 05:21:00,
2013-07-11 00:36:00,65.7,60.0,30.09,West,271,0.0,0.0,83,0.00,,,0.00,weatherlink.com 1.10,2013-07-11 05:36:00,
2013-07-11 00:51:00,65.7,61.0,30.09,West,271,0.0,0.0,84,0.00,,,0.00,weatherlink.com 1.10,2013-07-11 05:51:00,
2013-07-11 01:06:00,65.5,60.0,30.10,West,271,2.0,6.0,82,0.00,,,0.00,weatherlink.com 1.10,2013-07-11 06:06:00,
2013-07-11 01:21:00,65.2,60.0,30.10,West,271,3.0,6.0,84,0.00,,,0.00,weatherlink.com 1.10,2013-07-11 06:21:00,
2013-07-11 01:36:00,64.9,61.0,30.10,West,271,0.0,6.0,86,0.00,,,0.00,weatherlink.com 1.10,2013-07-11 06:36:00,
2013-07-11 01:51:00,64.7,61.0,30.10,South,178,4.0,8.0,86,0.00,,,0.00,weatherlink.com 1.10,2013-07-11 06:51:00,
2013-07-11 02:06:00,64.6,61.0,30.11,South,178,4.0,7.0,88,0.00,,,0.00,weatherlink.com 1.10,2013-07-11 07:06:00,
2013-07-11 02:21:00,64.5,61.0,30.11,South,178,7.0,7.0,89,0.00,,,0.00,weatherlink.com 1.10,2013-07-11 07:21:00,
2013-07-11 02:36:00,64.3,61.0,30.11,South,173,5.0,8.0,89,0.00,,,0.00,weatherlink.com 1.10,2013-07-11 07:36:00,
2013-07-11 02:51:00,64.1,61.0,30.11,South,173,4.0,6.0,89,0.00,,,0.00,weatherlink.com 1.10,2013-07-11 07:51:00,
2013-07-11 03:06:00,63.9,61.0,30.11,South,173,5.0,7.0,89,0.00,,,0.00,weatherlink.com 1.10,2013-07-11 08:06:00,
2013-07-11 03:21:00,63.9,61.0,30.12,South,173,4.0,7.0,89,0.00,,,0.00,weatherlink.com 1.10,2013-07-11 08:21:00,
2013-07-11 03:36:00,63.5,60.0,30.12,South,173,0.0,5.0,89,0.00,,,0.00,weatherlink.com 1.10,2013-07-11 08:36:00,
2013-07-11 03:51:00,63.1,60.0,30.12,South,173,1.0,7.0,89,0.00,,,0.00,weatherlink.com 1.10,2013-07-11 08:51:00,
2013-07-11 04:06:00,62.5,60.0,30.12,South,171,5.0,8.0,90,0.00,,,0.00,weatherlink.com 1.10,2013-07-11 09:06:00,
2013-07-11 04:21:00,62.5,60.0,30.12,South,171,6.0,8.0,90,0.00,,,0.00,weatherlink.com 1.10,2013-07-11 09:21:00,
2013-07-11 04:36:00,62.3,60.0,30.13,South,171,0.0,7.0,91,0.00,,,0.00,weatherlink.com 1.10,2013-07-11 09:36:00,
2013-07-11 04:51:00,62.3,60.0,30.13,South,171,3.0,6.0,91,0.00,,,0.00,weatherlink.com 1.10,2013-07-11 09:51:00,
2013-07-11 05:06:00,62.3,60.0,30.13,South,171,7.0,7.0,91,0.00,,,0.00,weatherlink.com 1.10,2013-07-11 10:06:00,
2013-07-11 05:21:00,62.2,59.0,30.14,South,171,0.0,5.0,90,0.00,,,0.00,weatherlink.com 1.10,2013-07-11 10:21:00,
2013-07-11 05:36:00,62.0,59.0,30.15,South,171,0.0,5.0,90,0.00,,,0.00,weatherlink.com 1.10,2013-07-11 10:36:00,
2013-07-11 05:51:00,61.7,59.0,30.15,South,171,3.0,7.0,90,0.00,,,0.00,weatherlink.com 1.10,2013-07-11 10:51:00,
2013-07-11 06:06:00,61.7,59.0,30.15,SSE,167,5.0,8.0,90,0.00,,,0.00,weatherlink.com 1.10,2013-07-11 11:06:00,
2013-07-11 06:21:00,61.6,59.0,30.16,SSE,167,2.0,7.0,91,0.00,,,0.00,weatherlink.com 1.10,2013-07-11 11:21:00,
2013-07-11 06:36:00,61.9,59.0,30.16,SSE,167,0.0,5.0,90,0.00,,,0.00,weatherlink.com 1.10,2013-07-11 11:36:00,
2013-07-11 06:51:00,62.2,59.0,30.16,SSE,167,1.0,7.0,90,0.00,,,0.00,weatherlink.com 1.10,2013-07-11 11:51:00,
2013-07-11 07:06:00,62.5,59.0,30.16,SSE,167,3.0,7.0,89,0.00,,,0.00,weatherlink.com 1.10,2013-07-11 12:06:00,
2013-07-11 07:21:00,63.0,60.0,30.17,SSE,167,0.0,4.0,89,0.00,,,0.00,weatherlink.com 1.10,2013-07-11 12:21:00,
2013-07-11 07:36:00,63.6,60.0,30.17,SSE,167,0.0,4.0,89,0.00,,,0.00,weatherlink.com 1.10,2013-07-11 12:36:00,
2013-07-11 07:51:00,64.5,61.0,30.17,SSE,167,0.0,5.0,88,0.00,,,0.00,weatherlink.com 1.10,2013-07-11 12:51:00,
2013-07-11 08:06:00,66.1,62.0,30.17,SSE,167,0.0,0.0,86,0.00,,,0.00,weatherlink.com 1.10,2013-07-11 13:06:00,
2013-07-11 08:21:00,66.8,62.0,30.17,SSE,167,0.0,6.0,83,0.00,,,0.00,weatherlink.com 1.10,2013-07-11 13:21:00,
2013-07-11 08:36:00,67.3,61.0,30.16,SSE,167,0.0,4.0,80,0.00,,,0.00,weatherlink.com 1.10,2013-07-11 13:36:00,
2013-07-11 08:51:00,69.6,62.0,30.16,SSE,167,0.0,0.0,76,0.00,,,0.00,weatherlink.com 1.10,2013-07-11 13:51:00,
2013-07-11 09:06:00,70.4,61.0,30.17,SSE,167,0.0,0.0,71,0.00,,,0.00,weatherlink.com 1.10,2013-07-11 14:06:00,
2013-07-11 09:21:00,72.6,61.0,30.16,SSE,167,0.0,0.0,68,0.00,,,0.00,weatherlink.com 1.10,2013-07-11 14:21:00,
2013-07-11 09:37:00,75.3,61.0,30.16,SSE,167,0.0,0.0,62,0.00,,,0.00,weatherlink.com 1.10,2013-07-11 14:37:00,
2013-07-11 09:52:00,74.7,61.0,30.16,WSW,239,1.0,6.0,62,0.00,,,0.00,weatherlink.com 1.10,2013-07-11 14:52:00,
2013-07-11 10:07:00,75.2,60.0,30.15,NW,304,8.0,8.0,60,0.00,,,0.00,weatherlink.com 1.10,2013-07-11 15:07:00,
2013-07-11 10:22:00,75.4,60.0,30.15,NW,317,0.0,8.0,59,0.00,,,0.00,weatherlink.com 1.10,2013-07-11 15:22:00,
2013-07-11 10:37:00,76.4,59.0,30.16,WNW,293,4.0,7.0,56,0.00,,,0.00,weatherlink.com 1.10,2013-07-11 15:37:00,
2013-07-11 10:52:00,78.1,59.0,30.16,NNW,344,2.0,8.0,52,0.00,,,0.00,weatherlink.com 1.10,2013-07-11 15:52:00,
2013-07-11 11:07:00,77.1,58.0,30.15,North,350,0.0,8.0,52,0.00,,,0.00,weatherlink.com 1.10,2013-07-11 16:07:00,
2013-07-11 11:22:00,77.4,59.0,30.15,North,355,0.0,7.0,53,0.00,,,0.00,weatherlink.com 1.10,2013-07-11 16:22:00,
2013-07-11 11:37:00,79.8,61.0,30.15,North,355,0.0,5.0,52,0.00,,,0.00,weatherlink.com 1.10,2013-07-11 16:37:00,
2013-07-11 11:52:00,80.1,60.0,30.15,West,273,0.0,7.0,50,0.00,,,0.00,weatherlink.com 1.10,2013-07-11 16:52:00,
2013-07-11 12:22:00,79.8,59.0,30.14,West,269,1.0,7.0,50,0.00,,,0.00,weatherlink.com 1.10,2013-07-11 17:22:00,
2013-07-11 12:37:00,81.2,58.0,30.14,WSW,257,6.0,7.0,45,0.00,,,0.00,weatherlink.com 1.10,2013-07-11 17:37:00,
2013-07-11 12:52:00,82.1,57.0,30.14,WNW,288,2.0,7.0,42,0.00,,,0.00,weatherlink.com 1.10,2013-07-11 17:52:00,
2013-07-11 13:07:00,80.6,56.0,30.13,WSW,258,4.0,9.0,43,0.00,,,0.00,weatherlink.com 1.10,2013-07-11 18:07:00,
2013-07-11 13:22:00,82.2,56.0,30.13,WSW,258,5.0,5.0,41,0.00,,,0.00,weatherlink.com 1.10,2013-07-11 18:22:00,
2013-07-11 13:37:00,82.3,57.0,30.13,SW,215,7.0,10.0,42,0.00,,,0.00,weatherlink.com 1.10,2013-07-11 18:37:00,
2013-07-11 14:22:00,81.6,56.0,30.12,South,170,9.0,12.0,41,0.00,,,0.00,weatherlink.com 1.10,2013-07-11 19:22:00,
2013-07-11 14:37:00,83.7,56.0,30.11,WSW,241,1.0,10.0,39,0.00,,,0.00,weatherlink.com 1.10,2013-07-11 19:37:00,
2013-07-11 15:07:00,83.5,57.0,30.11,South,190,3.0,9.0,41,0.00,,,0.00,weatherlink.com 1.10,2013-07-11 20:07:00,
2013-07-11 15:37:00,82.9,57.0,30.10,SSW,209,6.0,10.0,41,0.00,,,0.00,weatherlink.com 1.10,2013-07-11 20:37:00,
2013-07-11 15:52:00,83.6,57.0,30.11,SW,217,5.0,9.0,40,0.00,,,0.00,weatherlink.com 1.10,2013-07-11 20:52:00,
2013-07-11 16:22:00,82.9,57.0,30.10,SSW,195,0.0,11.0,41,0.00,,,0.00,weatherlink.com 1.10,2013-07-11 21:22:00,
2013-07-11 16:37:00,83.3,57.0,30.10,SSW,205,8.0,11.0,40,0.00,,,0.00,weatherlink.com 1.10,2013-07-11 21:37:00,
2013-07-11 16:52:00,84.1,57.0,30.10,SSW,212,9.0,12.0,39,0.00,,,0.00,weatherlink.com 1.10,2013-07-11 21:52:00,
2013-07-11 17:07:00,83.3,57.0,30.10,SSW,206,8.0,11.0,41,0.00,,,0.00,weatherlink.com 1.10,2013-07-11 22:07:00,
2013-07-11 17:22:00,83.2,58.0,30.10,South,171,4.0,14.0,43,0.00,,,0.00,weatherlink.com 1.10,2013-07-11 22:22:00,
2013-07-11 17:37:00,82.9,57.0,30.10,South,189,0.0,11.0,42,0.00,,,0.00,weatherlink.com 1.10,2013-07-11 22:37:00,
2013-07-11 17:52:00,83.2,58.0,30.09,SE,146,6.0,10.0,42,0.00,,,0.00,weatherlink.com 1.10,2013-07-11 22:52:00,
2013-07-11 18:08:00,82.2,58.0,30.09,South,177,7.0,10.0,44,0.00,,,0.00,weatherlink.com 1.10,2013-07-11 23:08:00,
2013-07-11 18:23:00,82.5,58.0,30.09,SSE,152,0.0,11.0,43,0.00,,,0.00,weatherlink.com 1.10,2013-07-11 23:23:00,
2013-07-11 19:08:00,81.1,59.0,30.09,South,170,6.0,13.0,47,0.00,,,0.00,weatherlink.com 1.10,2013-07-12 00:08:00,
2013-07-11 19:38:00,80.5,60.0,30.08,SSE,157,9.0,12.0,49,0.00,,,0.00,weatherlink.com 1.10,2013-07-12 00:38:00,
2013-07-11 19:53:00,80.2,59.0,30.08,SSE,152,7.0,11.0,49,0.00,,,0.00,weatherlink.com 1.10,2013-07-12 00:53:00,
2013-07-11 20:08:00,80.0,60.0,30.08,SSE,167,6.0,10.0,50,0.00,,,0.00,weatherlink.com 1.10,2013-07-12 01:08:00,
2013-07-11 20:23:00,79.6,60.0,30.08,South,169,7.0,9.0,51,0.00,,,0.00,weatherlink.com 1.10,2013-07-12 01:23:00,
2013-07-11 20:38:00,79.3,60.0,30.08,SSE,154,6.0,8.0,51,0.00,,,0.00,weatherlink.com 1.10,2013-07-12 01:38:00,
2013-07-11 20:53:00,78.9,60.0,30.08,South,169,1.0,7.0,53,0.00,,,0.00,weatherlink.com 1.10,2013-07-12 01:53:00,
2013-07-11 21:08:00,78.0,62.0,30.08,SSE,156,4.0,7.0,59,0.00,,,0.00,weatherlink.com 1.10,2013-07-12 02:08:00,
2013-07-11 21:23:00,77.2,62.0,30.09,SSE,156,0.0,5.0,60,0.00,,,0.00,weatherlink.com 1.10,2013-07-12 02:23:00,
2013-07-11 21:38:00,76.3,62.0,30.09,SSE,156,0.0,6.0,62,0.00,,,0.00,weatherlink.com 1.10,2013-07-12 02:38:00,
2013-07-11 21:53:00,75.6,62.0,30.10,SSE,156,5.0,7.0,63,0.00,,,0.00,weatherlink.com 1.10,2013-07-12 02:53:00,
2013-07-11 22:08:00,75.2,63.0,30.10,SSE,156,0.0,6.0,65,0.00,,,0.00,weatherlink.com 1.10,2013-07-12 03:08:00,
2013-07-11 22:23:00,74.7,63.0,30.10,SSE,156,0.0,6.0,66,0.00,,,0.00,weatherlink.com 1.10,2013-07-12 03:23:00,
2013-07-11 22:38:00,74.1,63.0,30.09,SSE,156,4.0,6.0,68,0.00,,,0.00,weatherlink.com 1.10,2013-07-12 03:38:00,
2013-07-11 22:53:00,73.6,63.0,30.09,SSE,156,5.0,7.0,70,0.00,,,0.00,weatherlink.com 1.10,2013-07-12 03:53:00,
2013-07-11 23:08:00,73.1,63.0,30.10,SSE,156,6.0,8.0,71,0.00,,,0.00,weatherlink.com 1.10,2013-07-12 04:08:00,
2013-07-11 23:23:00,72.6,63.0,30.09,SSE,156,4.0,6.0,73,0.00,,,0.00,weatherlink.com 1.10,2013-07-12 04:23:00,
2013-07-11 23:38:00,72.1,63.0,30.09,SSE,156,5.0,7.0,73,0.00,,,0.00,weatherlink.com 1.10,2013-07-12 04:38:00,
2013-07-11 23:53:00,72.0,63.0,30.10,SSE,156,2.0,5.0,73,0.00,,,0.00,weatherlink.com 1.10,2013-07-12 04:53:00,